Tracking 18917 objects as of 16-Jan-2018
HD Live streaming from Space Station
objects crossing your sky now

FENGYUN 1C DEB

Track FENGYUN 1C DEB now!
10-day predictions


NORAD ID: 35099
Int'l Code: 1999-025DKB
Perigee: 481.9 km
Apogee: 688.1 km
Inclination: 98.3 °
Period: 96.2 minutes
Semi major axis: 6955 km
RCS: 0.0101 m2 (small)
Launch date: May 10, 1999
Source: People's Republic of China (PRC)
Launch site: Taiyaun Space Center, China (TSC)

Note: This is SATELLITE DEBRIS
aabbcc
Your satellite tracking list
Your tracking list is empty




NASA's NSSDC Master Catalog

Two Line Element Set (TLE):
1 35099U 99025DKB 18015.05659917  .00001649  00000-0  12206-3 0  9992
2 35099  98.2762 111.0690 0148236 338.0832  21.4089 14.96461792524274
Source of the keplerian elements: AFSPC